Dewpoint
-6 -6 -6 -6 -5 -4 -4 -2 1 2 1 -3 -4 -5 -3 0 2 2 0 1 2 2 -1 -2 -1 -1 -0 -1 -3 -9 -13 -17 -21 -17 -10 -8 -2 6
-5 -5 -5 -5 -5 -6 -4 -2 -2 1 2 1 -2 -7 -6 -7 -6 -1 1 -1 -3 -2 -1 -2 -2 -1 0 -0 -1 -3 -9 -12 -18 -20 -13 -11 -7 5
-4 -4 -4 -5 -4 -4 -5 -3 -2 -1 0 -0 -0 -1 -6 -3 -6 -5 -0 1 1 -1 1 2 0 -1 0 0 -0 -1 -4 -9 -14 -20 -18 -13 -11 -2
-6 -5 -5 -5 -5 -5 -5 -3 -1 -1 -1 -1 -1 -1 -1 -4 -2 -2 -0 1 -1 -2 1 1 2 -0 0 1 0 -0 -2 -5 -12 -17 -21 -17 -15 -10
-9 -6 -7 -6 -6 -5 -5 -3 -3 -2 -1 -1 -1 -1 -1 -0 -3 -4 -3 -3 -1 -0 1 1 0 0 1 1 1 0 -0 -3 -8 -14 -18 -19 -18 -15
-13 -11 -10 -8 -8 -8 -12 -13 -12 -6 -2 -2 -2 -1 -2 -3 -2 -1 -1 -1 -0 -1 -0 -0 0 0 0 1 1 1 0 -1 -5 -11 -15 -19 -20 -18
-20 -14 -10 -10 -12 -13 -14 -16 -13 -5 -2 -2 -2 -2 -2 -2 -2 -2 -2 -2 -2 -1 -2 -2 -1 -0 -0 1 1 1 1 0 -2 -8 -11 -18 -20 -20
-19 -15 -12 -11 -12 -13 -14 -11 -6 -4 -2 -2 -2 -2 -2 -2 -2 -3 -4 -3 -2 -2 -2 -2 -1 -2 -2 -1 0 0 1 1 -0 -4 -8 -16 -20 -21
-23 -13 -10 -9 -9 -8 -10 -9 -11 -12 -4 -3 -3 -3 -3 -3 -3 -2 -2 -3 -3 -3 -2 -2 -2 -2 -2 -1 -1 -0 -2 -2 -1 -5 -10 -15 -17 -20
-19 -13 -12 -11 -10 -9 -7 -7 -11 -12 -11 -7 -6 -5 -7 -5 -5 -5 -4 -3 -2 -2 -2 -2 -3 -2 -2 -2 -1 -1 -0 -7 -7 -10 -12 -11 -13 -17
-13 -13 -13 -12 -12 -10 -9 -8 -7 -7 -8 -7 -6 -6 -7 -7 -5 -6 -6 -3 -3 -3 -3 -3 -2 -3 -3 -2 -2 -1 -1 -0 -0 -3 -6 -8 -11 -13
-17 -16 -14 -13 -11 -9 -7 -7 -7 -9 -6 -6 -6 -6 -6 -5 -4 -5 -7 -6 -4 -4 -3 -2 -2 -2 -2 -3 -3 -2 -2 -2 -2 -1 -3 -7 -9 -10
-21 -22 -20 -14 -10 -9 -9 -8 -7 -7 -7 -8 -9 -9 -8 -7 -7 -5 -5 -6 -6 -5 -6 -4 -4 -3 -2 -2 -2 -2 -3 -4 -6 -3 -3 -6 -8 -10
-20 -19 -17 -13 -12 -12 -9 -9 -7 -6 -8 -9 -8 -6 -6 -5 -6 -7 -7 -6 -6 -6 -5 -4 -4 -4 -4 -3 -2 -2 -2 -2 -3 -7 -4 -6 -3 -5
-17 -14 -10 -10 -9 -8 -8 -7 -8 -8 -7 -7 -8 -7 -7 -6 -6 -6 -7 -6 -5 -5 -5 -5 -5 -4 -4 -4 -4 -3 -2 -2 -3 -4 -6 -3 -3 -3
-12 -8 -8 -8 -8 -8 -8 -7 -7 -7 -7 -7 -8 -8 -7 -6 -8 -8 -7 -7 -6 -5 -5 -7 -6 -5 -4 -4 -4 -4 -3 -3 -3 -3 -6 -6 -5 -4
-8 -8 -9 -9 -9 -8 -7 -6 -7 -7 -7 -7 -8 -7 -8 -8 -9 -9 -8 -8 -8 -6 -6 -7 -7 -6 -5 -4 -4 -4 -4 -4 -4 -4 -3 -3 -5 -7
-8 -8 -9 -8 -8 -7 -7 -7 -7 -7 -8 -7 -8 -8 -8 -8 -9 -9 -9 -9 -9 -8 -6 -6 -5 -6 -6 -6 -5 -5 -4 -4 -4 -4 -4 -4 -4 -4
-7 -8 -9 -8 -8 -8 -8 -7 -7 -7 -8 -8 -8 -9 -9 -9 -9 -9 -9 -9 -9 -9 -7 -7 -6 -6 -6 -6 -5 -5 -5 -5 -5 -4 -5 -4 -4 -4
-8 -7 -7 -7 -7 -8 -9 -9 -8 -9 -9 -9 -9 -9 -9 -9 -9 -9 -9 -9 -9 -9 -9 -8 -7 -6 -6 -6 -5 -5 -5 -5 -5 -5 -5 -5 -5 -5
-8 -8 -8 -8 -8 -9 -9 -9 -9 -9 -9 -9 -9 -9 -9 -9 -9 -8 -8 -8 -8 -8 -9 -9 -8 -6 -6 -6 -6 -6 -6 -5 -5 -6 -6 -5 -5 -5
-8 -9 -9 -9 -9 -8 -9 -9 -9 -9 -9 -9 -9 -9 -9 -9 -9 -9 -9 -8 -8 -8 -9 -10 -10 -7 -6 -6 -6 -6 -6 -6 -6 -6 -6 -6 -6 -6
-9 -9 -9 -9 -9 -9 -9 -9 -8 -8 -8 -9 -9 -9 -9 -9 -10 -10 -9 -10 -9 -8 -9 -10 -10 -8 -7 -6 -6 -6 -6 -6 -6 -6 -7 -7 -7 -7
Wind_Speed
19 20 20 21 21 21 22 23 22 26 23 24 25 24 22 22 23 25 26 25 26 29 29 28 28 26 24 22 21 21 20 18 16 15 14 12 7 4
20 22 23 23 23 24 24 24 25 26 32 25 29 32 31 31 30 27 29 29 28 29 32 29 27 28 27 24 22 22 20 19 18 16 14 12 10 7
24 24 24 25 25 27 27 26 26 27 31 31 27 26 33 32 34 33 29 27 28 27 29 27 25 27 28 28 25 23 21 20 19 18 16 14 12 13
26 26 27 27 28 29 29 27 25 26 29 33 28 27 25 31 32 30 29 32 31 27 27 29 28 28 29 29 28 26 24 21 20 19 17 16 14 13
24 25 27 27 27 28 27 27 28 28 30 32 31 27 24 21 30 31 33 34 32 25 24 26 30 28 30 31 30 28 26 23 21 20 18 17 16 14
26 27 29 27 27 27 30 31 32 31 28 28 30 29 33 34 29 29 29 27 28 23 26 26 27 30 28 30 30 29 27 25 23 22 20 19 18 16
30 27 26 26 27 28 29 31 30 28 30 30 30 30 32 28 27 27 30 30 32 31 31 25 23 22 21 23 26 28 28 26 24 23 22 20 19 18
29 29 28 28 29 27 27 27 28 28 28 30 31 30 27 27 29 28 29 32 32 26 24 25 22 26 27 26 24 24 25 26 25 24 23 21 20 20
28 27 28 27 26 27 28 27 27 27 27 28 29 30 30 25 26 25 28 30 32 29 27 34 29 27 24 25 23 22 21 23 24 24 23 21 20 20
26 24 25 26 26 27 30 32 32 30 27 29 29 31 29 28 29 27 27 29 34 31 28 33 30 29 25 25 22 20 21 21 20 20 21 21 20 20
24 23 24 27 28 26 31 30 28 29 29 29 28 28 28 27 22 22 26 26 28 29 27 27 31 28 26 23 21 21 18 22 24 23 23 23 22 20
27 26 24 26 26 25 28 28 28 29 28 29 31 31 29 29 27 21 23 28 30 27 19 19 26 23 22 14 11 19 18 19 19 22 23 23 24 23
28 31 29 26 24 29 30 28 27 27 30 30 31 31 29 27 26 22 21 23 27 31 31 23 26 22 21 20 15 14 12 8 13 20 22 22 23 22
27 29 29 27 28 30 28 26 23 23 26 27 25 26 25 22 24 25 26 22 24 27 24 21 24 23 22 24 22 18 18 13 11 10 18 20 21 21
25 26 26 26 26 25 25 24 25 23 21 24 25 26 25 25 23 25 26 24 21 22 21 19 21 19 18 22 23 18 15 14 12 12 13 16 21 22
27 26 28 30 28 28 25 23 23 24 24 26 25 25 25 26 27 22 24 23 20 20 16 16 18 17 18 19 18 18 16 11 10 15 16 18 20 22
28 29 30 30 29 27 25 22 22 22 23 23 23 23 25 24 23 21 22 23 22 20 18 15 16 17 16 15 18 18 17 17 17 18 16 20 23 22
30 31 31 31 29 27 26 25 25 24 23 22 24 24 25 25 24 22 20 20 22 20 17 16 16 17 18 16 15 16 16 16 17 17 18 17 16 21
31 32 32 31 30 28 27 26 26 25 24 24 24 22 22 20 21 20 20 19 19 16 16 16 14 15 17 17 14 12 13 14 15 17 18 19 19 18
28 28 28 27 27 29 28 26 25 24 24 25 25 25 23 22 22 22 21 20 19 17 18 16 16 15 16 18 14 14 12 10 12 12 15 16 17 19
26 26 26 28 29 28 25 24 22 21 22 23 22 24 21 21 22 22 22 20 18 17 18 17 16 15 13 12 13 14 13 12 10 11 13 13 15 17
27 28 26 27 26 26 26 25 24 22 22 21 21 21 17 16 18 19 19 20 19 18 17 18 17 15 12 14 14 10 13 10 9 12 12 11 10 8
23 23 26 27 28 29 27 23 23 23 21 21 21 21 19 19 18 18 19 19 18 16 16 16 15 15 13 14 12 10 12 10 9 10 12 12 12 9
Wind_Direction
315 313 312 310 304 303 299 296 286 291 288 299 296 295 290 289 291 290 288 287 284 282 284 286 287 287 283 282 285 286 286 286 284 284 285 285 267 283
311 308 307 306 301 301 299 298 294 283 284 283 289 299 301 300 299 292 286 290 286 283 282 280 278 278 278 277 277 278 279 281 281 278 274 272 261 230
308 306 303 303 303 301 299 294 287 287 284 289 287 289 296 297 298 298 294 288 284 282 284 281 276 276 274 273 272 270 271 273 273 272 269 263 256 233
311 308 307 307 303 303 301 297 289 286 285 290 293 293 289 296 293 297 297 285 289 282 276 279 278 275 271 271 269 267 265 264 264 263 263 259 254 246
311 307 306 305 302 302 297 292 292 290 286 288 292 296 298 286 290 289 290 293 293 301 290 290 288 283 271 268 265 264 263 259 257 257 256 252 249 245
310 307 307 306 305 301 301 298 297 290 285 284 286 283 285 295 299 301 298 300 302 287 279 281 289 293 292 270 264 261 260 259 255 251 250 246 242 238
307 304 299 299 299 301 301 303 301 292 286 285 286 289 296 298 298 296 294 294 292 292 293 288 287 288 291 287 272 262 257 256 254 252 250 244 239 234
300 300 297 298 302 300 298 302 302 299 291 289 288 288 288 293 296 295 297 296 294 296 293 287 275 277 281 288 284 272 258 254 253 249 249 242 236 232
304 296 294 295 295 294 295 292 293 298 289 286 290 290 292 296 296 291 291 291 289 290 292 294 290 280 277 276 274 268 262 253 247 245 241 239 236 231
301 294 291 292 291 291 290 290 293 293 296 290 288 290 294 285 289 292 292 292 287 283 286 288 296 298 294 276 260 260 248 247 245 241 238 241 238 235
292 290 290 290 294 297 293 297 296 293 294 293 290 290 293 297 289 289 286 290 297 294 294 292 289 292 291 288 273 255 249 243 241 240 239 237 237 234
298 298 296 296 300 297 294 298 297 293 295 291 287 285 288 288 289 287 289 292 294 302 308 294 293 291 289 288 280 265 258 246 239 237 236 234 235 233
302 303 302 300 289 286 291 296 295 295 293 292 292 294 294 291 296 290 294 295 294 290 289 298 284 283 272 262 271 281 282 285 243 232 229 229 231 234
298 298 298 295 291 291 295 297 299 297 297 300 298 293 294 291 293 293 289 285 286 285 293 294 288 289 284 281 255 260 269 264 261 242 226 223 223 232
301 301 300 301 303 301 299 292 291 297 299 295 294 293 295 294 293 294 291 293 284 281 284 295 306 303 289 278 274 271 258 261 250 236 220 220 216 224
296 292 289 291 293 295 295 295 288 284 288 294 296 291 286 291 297 297 298 301 294 291 288 297 303 295 290 281 273 267 267 262 253 239 224 218 221 223
291 290 292 291 292 292 290 285 290 294 293 294 295 289 289 294 296 300 299 304 296 295 300 299 301 297 287 281 276 265 265 264 259 253 241 234 223 223
286 284 284 284 285 286 286 285 290 287 293 291 293 292 290 287 295 300 302 303 308 292 295 300 302 302 296 282 276 274 266 263 255 249 245 241 239 229
278 279 279 279 280 284 284 286 283 288 292 290 292 295 291 288 288 292 299 308 310 312 296 294 301 294 293 286 291 287 279 276 259 249 240 236 238 237
279 276 276 277 277 281 284 284 286 288 285 291 295 294 288 283 285 283 289 294 301 309 296 290 295 292 284 280 279 283 284 277 262 256 244 236 233 237
283 281 279 279 281 286 288 288 286 286 286 290 295 291 282 276 274 277 283 283 283 287 298 299 289 299 286 281 277 283 279 267 258 246 243 240 241 244
290 293 289 281 281 284 286 286 281 279 283 289 294 301 291 287 288 293 282 283 284 282 286 294 290 288 285 279 273 281 279 275 252 240 240 235 230 227
296 294 286 281 279 280 279 276 275 278 281 285 290 295 285 282 285 283 280 280 275 278 283 295 296 282 287 282 274 267 268 274 253 247 240 229 223 229
Height
1516 1514 1512 1510 1508 1506 1503 1501 1498 1491 1488 1487 1485 1483 1480 1478 1475 1472 1470 1468 1466 1463 1461 1460 1459 1457 1456 1455 1454 1452 1451 1450 1448 1447 1448 1448 1447 1447
1512 1510 1508 1505 1503 1501 1498 1495 1493 1489 1480 1482 1480 1477 1474 1471 1468 1466 1463 1461 1459 1457 1454 1453 1452 1450 1450 1449 1448 1447 1446 1445 1445 1444 1443 1444 1445 1445
1507 1504 1502 1501 1497 1495 1492 1490 1487 1485 1478 1474 1474 1471 1469 1466 1462 1460 1457 1455 1452 1451 1448 1446 1444 1444 1443 1443 1442 1441 1441 1440 1440 1440 1440 1440 1441 1442
1501 1499 1496 1494 1492 1489 1487 1484 1482 1479 1475 1468 1467 1465 1463 1461 1457 1454 1452 1448 1445 1444 1442 1440 1438 1436 1435 1435 1435 1435 1434 1434 1435 1435 1436 1436 1436 1437
1496 1493 1491 1489 1486 1483 1481 1478 1475 1472 1469 1464 1459 1458 1456 1454 1450 1448 1445 1441 1438 1437 1436 1434 1431 1429 1428 1428 1428 1428 1428 1428 1428 1429 1430 1431 1432 1433
1491 1488 1486 1484 1481 1478 1475 1472 1468 1465 1462 1458 1454 1451 1448 1446 1444 1440 1436 1435 1432 1431 1429 1428 1426 1423 1421 1420 1420 1420 1421 1422 1422 1423 1425 1426 1427 1429
1484 1482 1479 1477 1475 1472 1468 1464 1462 1459 1456 1452 1448 1444 1440 1438 1437 1435 1432 1429 1427 1424 1421 1419 1418 1417 1415 1413 1412 1413 1414 1415 1416 1417 1419 1420 1422 1424
1476 1474 1472 1469 1467 1465 1462 1458 1455 1452 1449 1446 1442 1439 1435 1433 1431 1428 1426 1423 1419 1419 1415 1412 1412 1409 1408 1407 1406 1406 1406 1408 1410 1411 1413 1415 1417 1418
1469 1467 1464 1462 1461 1458 1454 1451 1448 1445 1443 1439 1435 1433 1430 1429 1426 1423 1421 1418 1415 1413 1410 1403 1404 1401 1402 1400 1398 1399 1400 1401 1403 1404 1406 1409 1412 1414
1462 1460 1458 1456 1453 1452 1447 1443 1441 1438 1436 1432 1429 1426 1424 1422 1420 1418 1415 1412 1409 1406 1405 1398 1397 1395 1394 1393 1391 1391 1392 1395 1397 1399 1401 1404 1406 1409
1456 1455 1451 1449 1445 1444 1439 1436 1433 1430 1428 1425 1423 1420 1418 1416 1413 1411 1408 1406 1401 1399 1398 1394 1390 1389 1389 1385 1385 1383 1386 1387 1390 1393 1395 1398 1401 1403
1448 1446 1443 1441 1439 1437 1433 1431 1427 1424 1423 1420 1416 1413 1412 1409 1406 1405 1403 1400 1398 1394 1392 1390 1387 1385 1382 1379 1379 1379 1380 1381 1383 1385 1390 1393 1395 1397
1440 1437 1435 1434 1433 1430 1427 1424 1422 1419 1416 1413 1409 1407 1405 1403 1401 1399 1398 1396 1393 1389 1387 1386 1383 1381 1379 1377 1377 1377 1378 1378 1378 1379 1384 1388 1390 1392
1434 1431 1429 1427 1425 1422 1420 1418 1415 1413 1410 1406 1404 1401 1399 1397 1396 1394 1393 1391 1389 1385 1382 1381 1377 1376 1375 1373 1373 1373 1374 1375 1375 1376 1378 1382 1386 1389
1428 1425 1422 1419 1418 1415 1413 1412 1410 1407 1404 1401 1399 1396 1394 1392 1390 1388 1387 1384 1382 1380 1378 1377 1373 1371 1370 1369 1369 1370 1370 1371 1372 1373 1374 1377 1381 1384
1421 1419 1416 1414 1412 1409 1407 1405 1404 1402 1399 1396 1393 1391 1388 1386 1384 1384 1380 1378 1376 1374 1374 1372 1370 1368 1366 1366 1366 1366 1367 1367 1368 1369 1372 1375 1377 1380
1414 1411 1408 1406 1403 1402 1400 1399 1397 1395 1393 1391 1388 1385 1383 1382 1380 1379 1376 1374 1372 1369 1367 1368 1367 1364 1364 1362 1361 1361 1362 1363 1365 1366 1367 1369 1372 1375
1405 1402 1399 1398 1396 1394 1393 1391 1390 1388 1387 1385 1382 1380 1378 1377 1375 1374 1372 1370 1368 1366 1364 1364 1363 1362 1360 1359 1358 1357 1358 1359 1360 1361 1363 1365 1367 1370
1396 1393 1391 1389 1388 1387 1386 1384 1382 1382 1381 1379 1377 1375 1373 1372 1371 1369 1368 1366 1364 1363 1362 1361 1360 1360 1358 1356 1355 1355 1355 1354 1355 1356 1358 1361 1363 1365
1387 1385 1383 1381 1380 1379 1378 1377 1376 1375 1374 1373 1371 1369 1368 1367 1365 1364 1363 1362 1361 1360 1359 1358 1357 1356 1356 1355 1353 1353 1352 1352 1352 1353 1354 1356 1358 1361
1379 1377 1376 1374 1372 1372 1371 1370 1369 1368 1367 1366 1365 1363 1362 1361 1359 1358 1358 1358 1357 1356 1355 1354 1354 1353 1352 1351 1350 1349 1349 1349 1350 1351 1351 1353 1355 1356
1371 1369 1368 1367 1365 1365 1364 1363 1362 1362 1361 1360 1359 1358 1357 1356 1354 1353 1353 1352 1352 1352 1351 1351 1350 1350 1349 1348 1347 1346 1346 1347 1347 1348 1349 1350 1352 1352
1364 1362 1360 1359 1358 1357 1357 1356 1355 1355 1354 1354 1353 1352 1351 1350 1350 1349 1348 1347 1347 1347 1347 1347 1346 1346 1345 1345 1344 1344 1344 1344 1344 1345 1346 1347 1349 1350